sat.trackr.live / text

‹ back to catalog

STARLINK-35744

NORAD 66581 · 2025-268AA

PAYLOAD ACTIVE UNKNOWN

§ Identity

Operator
Country
US
Launch date
2025-11-21
Launch site
AFETR
Launch vehicle
Mass (kg)
RCS (m²)

Purposes: comms

External: N2YO · Heavens-Above · Gunter

§ Orbital elements

Epoch: 2026-05-24T17:53:17.731104Z

Period
94.27 min
Inclination
42.9993°
Eccentricity
0.0001396
Mean motion
15.27579590 rev/d
Perigee alt
482.1 km
Apogee alt
484.0 km
Semi-major
6,861.2 km
B*
6.5192e-4
RAAN
277.3506°
Arg perigee
271.6977°
Mean anomaly
88.3715°
Rev number
2,959

§ Raw data

STARLINK-357441 66581U 25268AA  26144.74534411  .00017720  00000+0  65192-3 0  99972 66581  42.9993 277.3506 0001396 271.6977  88.3715 15.27579590 29599

JSON: /api/v1/satellites/66581 · /tle

For live sub-satellite position, see the globe view (requires WebGL).

§ Visibility from observer

Set your observer location to see the next 7 days of passes ≥ 10°. The values pass through the URL so the page stays shareable.

No JS? Fill the form by hand. The geolocation button needs JavaScript.